Latest Coastal Weather Observations for Ceduna

IDS60701

Issued at 8:31 pm CST Friday 3 July 2015 (issued every 10 minutes, with the page automatically refreshed every 10 minutes)

About coastal observations | Map of coastal stations | Coastal observations for SA | Marine services | Other Formats
Station Details ID: 018012 Name: CEDUNA AMO Lat: -32.13 Lon: 133.70 Height: 15.3 m
Data from the previous 72 hours. | See also: Recent months at Ceduna
Date/Time
CST
Temp

°C
Wind Pressure Rain
since 9am
mm
Weather Cloud Vis
km
Sea
Height
m
Swell
Dir
 
Speed
knots
Gust
knots
hPa Trend Height
m
Period
s
Dir
03/08:30pm 7.7 ESE 8 9 1024.3 - 0.0 - - 10 - - - -
03/08:00pm 9.1 ESE 10 11 1024.2 - 0.0 - - 10 - - - -
03/07:30pm 8.0 ESE 9 10 1024.2 - 0.0 - - 10 - - - -
03/07:00pm 8.8 ESE 8 9 1024.3 - 0.0 - - 10 - - - -
03/06:30pm 9.7 ESE 7 8 1024.0 - 0.0 - - 10 - - - -
03/06:23pm 9.0 ENE 6 7 1024.0 - 0.0 - - 10 - - - -
03/06:00pm 14.4 NNE 4 5 1023.9 F 0.0 - - 10 - - - -
03/05:30pm 16.2 NNE 3 4 1023.8 - 0.0 - - 10 - - - -
03/05:00pm 17.8 NNW 4 7 1023.7 - 0.0 - - 10 - - - -
03/04:30pm 18.3 N 6 9 1023.9 - 0.0 - Partly cloudy 10 - - - -
03/04:00pm 18.2 N 6 9 1024.0 - 0.0 - - 10 - - - -
03/03:30pm 18.9 NNW 6 9 1024.1 - 0.0 - - 10 - - - -
03/03:00pm 18.9 N 8 11 1024.3 F 0.0 - - 10 - - - -
03/02:30pm 18.7 NNW 10 15 1024.6 - 0.0 - - 10 - - - -
03/02:00pm 18.7 N 11 14 1024.9 - 0.0 - - 10 - - - -
03/01:30pm 18.8 N 11 15 1025.3 - 0.0 - - 10 - - - -
03/01:00pm 18.3 N 11 16 1025.9 - 0.0 - - 10 - - - -
03/12:30pm 17.9 N 13 16 1026.6 - 0.0 - - 10 - - - -
03/12:00pm 17.6 N 10 14 1027.3 F 0.0 - - 10 - - - -
03/11:30am 16.9 N 10 13 1027.9 - 0.0 - - 10 - - - -
03/11:00am 16.0 N 10 13 1028.2 - 0.0 - - 10 - - - -
03/10:30am 14.1 N 5 26 1028.3 - 0.0 - - 10 - - - -
03/10:00am 12.0 NNE 5 7 1028.3 - 0.0 - - 10 - - - -
03/09:30am 9.6 NNE 4 6 1028.2 - 0.0 - - 10 - - - -
03/09:00am 8.1 NNE 5 6 1028.0 R 0.0 - Mostly cloudy 10 - - - -
03/08:30am 7.0 N 3 5 1027.9 - 0.0 - - 10 - - - -
03/08:00am 5.8 NE 9 10 1027.6 - 0.0 - - 10 - - - -
03/07:30am 6.0 NE 8 9 1027.5 - 0.0 - - 10 - - - -
03/07:00am 5.8 NE 10 11 1027.1 - 0.0 - - 10 - - - -
03/06:30am 5.7 NE 9 10 1026.8 - 0.0 - - 10 - - - -
03/06:00am 5.4 NE 6 9 1026.5 F 0.0 - Partly cloudy 10 - - - -
03/05:30am 4.9 ENE 7 8 1026.8 - 0.0 - - 10 - - - -
03/05:00am 5.2 NE 8 10 1027.0 - 0.0 - - 10 - - - -
03/04:30am 5.8 NE 9 10 1027.1 - 0.0 - - 10 - - - -
03/04:00am 2.1 ENE 5 6 1027.4 - 0.0 - - 10 - - - -
03/03:30am 2.6 ENE 7 7 1027.7 - 0.0 - - 10 - - - -
03/03:00am 3.2 NE 4 5 1028.0 F 0.0 - - 10 - - - -
03/02:30am 2.8 ENE 3 4 1028.1 - 0.0 - - 10 - - - -
03/02:00am 2.6 ENE 5 7 1028.3 - 0.0 - - 10 - - - -
03/01:30am 2.7 ENE 8 9 1028.5 - 0.0 - - 10 - - - -
03/01:00am 2.9 ENE 5 6 1029.0 - 0.0 - - 10 - - - -
03/12:30am 2.5 ENE 4 5 1028.9 - 0.0 - - 10 - - - -
03/12:00am 2.0 NE 3 5 1029.3 F 0.0 - - 10 - - - -
 
Date/Time
CST
Temp

°C
Wind Pressure Rain
since 9am
mm
Weather Cloud Vis
km
Sea
Height
m
Swell
Dir
 
Speed
knots
Gust
knots
hPa Trend Height
m
Period
s
Dir
02/11:30pm 3.4 CALM 0 0 1029.8 - 0.0 - - 10 - - - -
02/11:00pm 4.1 N 2 4 1029.9 - 0.0 - - 10 - - - -
02/10:30pm 3.9 ENE 8 9 1029.7 - 0.0 - - 10 - - - -
02/10:00pm 5.2 ENE 8 9 1030.0 - 0.0 - - 10 - - - -
02/09:30pm 5.9 ENE 8 9 1029.5 - 0.0 - - 10 - - - -
02/09:00pm 6.7 ESE 7 8 1029.6 F 0.0 - - 10 - - - -
02/08:30pm 7.0 ESE 7 8 1029.6 - 0.0 - - 10 - - - -
02/08:00pm 7.4 SE 7 8 1029.3 - 0.0 - - 10 - - - -
02/07:30pm 9.7 SE 8 9 1029.2 - 0.0 - - 10 - - - -
02/07:00pm 10.1 SE 9 10 1029.2 - 0.0 - - 10 - - - -
02/06:30pm 10.3 SSE 7 8 1028.9 - 0.0 - - 10 - - - -
02/06:00pm 11.3 SSE 8 10 1028.7 F 0.0 - - 10 - - - -
02/05:30pm 12.9 SSE 7 9 1028.6 - 0.0 - - 10 - - - -
02/05:00pm 14.4 SSE 8 10 1028.5 - 0.0 - - 10 - - - -
02/04:30pm 15.2 SSE 10 12 1028.4 - 0.0 - - 10 - - - -
02/04:00pm 16.3 S 9 11 1028.4 - 0.0 - - 10 - - - -
02/03:30pm 16.2 S 9 11 1028.5 - 0.0 - - 10 - - - -
02/03:00pm 16.4 SSW 9 11 1028.6 F 0.0 - - 10 - - - -
02/02:30pm 16.4 SSW 8 10 1028.9 - 0.0 - - 10 - - - -
02/02:00pm 16.2 SW 8 10 1029.1 - 0.0 - - 10 - - - -
02/01:30pm 15.9 SW 7 9 1029.6 - 0.0 - - 10 - - - -
02/01:00pm 15.4 SW 6 8 1030.1 - 0.0 - - 10 - - - -
02/12:30pm 15.2 SW 7 8 1030.7 - 0.0 - - 10 - - - -
02/12:00pm 15.7 W 2 4 1031.1 R 0.0 - - 10 - - - -
02/11:30am 15.3 N 3 5 1031.6 - 0.0 - - 10 - - - -
02/11:00am 14.8 N 1 4 1031.8 - 0.0 - - 10 - - - -
02/10:30am 13.4 NNE 3 5 1031.7 - 0.0 - - 10 - - - -
02/10:00am 11.3 ENE 3 4 1031.7 - 0.0 - - 10 - - - -
02/09:30am 9.1 ENE 4 4 1031.5 - 0.0 - - 10 - - - -
02/09:00am 5.5 E 4 5 1031.0 S 0.0 - - 10 - - - -
02/08:30am 2.5 ENE 6 7 1030.9 - 0.0 - - 10 - - - -
02/08:00am 0.7 NE 6 7 1030.5 - 0.0 - - 10 - - - -
02/07:30am 0.5 NE 7 7 1030.3 - 0.0 - - 10 - - - -
02/07:00am 0.9 NNE 7 7 1030.2 - 0.0 - - 10 - - - -
02/06:30am -0.4 NNE 3 5 1030.1 - 0.0 - - 10 - - - -
02/06:00am -0.1 NNE 5 6 1029.7 R 0.0 - - 10 - - - -
02/05:30am 0.1 NE 4 5 1029.4 - 0.0 - - 10 - - - -
02/05:00am 0.4 NE 3 4 1029.3 - 0.0 - - 10 - - - -
02/04:30am 1.0 NNE 4 5 1029.2 - 0.0 - - 10 - - - -
02/04:00am 1.1 NNE 5 6 1029.0 - 0.0 - - 10 - - - -
02/03:58am 1.1 NNE 5 6 1029.0 - 0.0 - - 10 - - - -
02/03:30am 0.2 NNE 4 5 1029.1 - 0.0 - - 3 - - - -
02/03:28am 0.4 NNE 4 5 1029.2 - 0.0 - - 5 - - - -
02/03:00am 1.4 NNE 4 6 1029.1 F 0.0 - - 10 - - - -
02/02:30am 1.2 NE 5 6 1029.2 - 0.0 - - 10 - - - -
02/02:00am 0.6 ENE 4 4 1029.3 - 0.0 - - 10 - - - -
02/01:30am 0.9 NE 4 5 1029.3 - 0.0 - - 10 - - - -
02/01:00am 1.2 ENE 5 5 1029.2 - 0.0 - - 10 - - - -
02/12:30am 1.4 ENE 5 6 1029.3 - 0.0 - - 10 - - - -
02/12:00am 1.1 E 5 5 1029.8 R 0.0 - - 10 - - - -
 
Date/Time
CST
Temp

°C
Wind Pressure Rain
since 9am
mm
Weather Cloud Vis
km
Sea
Height
m
Swell
Dir
 
Speed
knots
Gust
knots
hPa Trend Height
m
Period
s
Dir
01/11:30pm 1.4 NE 3 4 1030.0 - 0.0 - - 10 - - - -
01/11:00pm 1.6 ENE 4 6 1029.8 - 0.0 - - 10 - - - -
01/10:30pm 2.1 NE 5 6 1029.8 - 0.0 - - 10 - - - -
01/10:00pm 2.4 NE 5 5 1030.2 - 0.0 - - 10 - - - -
01/09:30pm 2.9 NE 3 4 1030.1 - 0.0 - - 10 - - - -
01/09:00pm 3.1 ENE 5 6 1029.6 R 0.0 - - 10 - - - -
01/08:30pm 4.6 ENE 4 6 1029.4 - 0.0 - - 10 - - - -
01/08:00pm 5.8 E 4 5 1029.1 - 0.0 - - 10 - - - -
01/07:30pm 5.6 SE 4 5 1029.2 - 0.0 - - 10 - - - -
01/07:00pm 6.8 SSE 4 5 1029.0 - 0.0 - - 10 - - - -
01/06:30pm 6.9 SSE 5 6 1028.6 - 0.0 - - 10 - - - -
01/06:00pm 10.0 S 6 7 1028.5 R 0.0 - Mostly clear 10 - - - -
01/05:30pm 11.9 S 6 7 1028.4 - 0.0 - - 10 - - - -
01/05:00pm 13.5 S 8 10 1028.1 - 0.0 - - 10 - - - -
01/04:30pm 14.0 S 9 11 1027.7 - 0.0 - - 10 - - - -
01/04:00pm 14.1 S 9 10 1027.5 - 0.0 - - 10 - - - -
01/03:30pm 15.4 S 8 10 1027.5 - 0.0 - - 10 - - - -
01/03:00pm 16.0 SSW 7 9 1027.4 F 0.0 - Mostly clear 10 - - - -
01/02:30pm 16.0 SSW 6 7 1027.6 - 0.0 - - 10 - - - -
01/02:00pm 16.3 SW 6 7 1027.7 - 0.0 - - 10 - - - -
01/01:30pm 16.8 WNW 5 8 1028.1 - 0.0 - - 10 - - - -
01/01:00pm 17.2 NW 5 9 1028.5 - 0.0 - - 10 - - - -
01/12:30pm 17.0 NW 6 7 1029.1 - 0.0 - - 10 - - - -
01/12:00pm 16.4 NW 6 8 1029.8 F 0.0 - - 10 - - - -
01/11:30am 15.9 N 6 9 1030.1 - 0.0 - - 10 - - - -
01/11:00am 14.9 N 6 7 1030.2 - 0.0 - - 10 - - - -
01/10:30am 13.7 N 4 6 1031.0 - 0.0 - - 10 - - - -
01/10:00am 10.9 NE 5 6 1030.6 - 0.0 - - 10 - - - -
01/09:30am 9.2 NNE 5 6 1030.8 - 0.0 - - 10 - - - -
01/09:00am 6.8 NNE 3 5 1030.4 F 0.0 - Mostly clear 10 - - - -
01/08:30am 2.0 NE 4 5 1030.1 - 0.0 - - 10 - - - -
01/08:00am 0.6 NNE 5 5 1030.2 - 0.0 - - 10 - - - -
01/07:30am 0.8 NE 3 4 1030.1 - 0.0 - - 10 - - - -
01/07:00am 0.3 NNE 3 4 1029.7 - 0.0 - - 10 - - - -
01/06:30am 0.6 CALM 0 0 1029.6 - 0.0 - - 10 - - - -
01/06:28am 0.8 CALM 0 0 1029.6 - 0.0 - - 10 - - - -
01/06:06am -0.2 CALM 0 0 1029.8 - 0.0 - - 4 - - - -
01/06:00am 0.2 CALM 0 0 1029.7 S 0.0 - - 10 - - - -
01/05:30am 0.2 NNE 3 4 1029.5 - 0.0 - - 10 - - - -
01/05:00am 0.3 NE 5 6 1029.4 - 0.0 - - 10 - - - -
01/04:46am 0.2 NNE 4 5 1029.5 - 0.0 - - 10 - - - -
01/04:30am 0.3 NNE 2 4 1029.5 - 0.0 - - 0.7 - - - -
01/04:00am 0.0 CALM 0 0 1029.3 - 0.0 - - 0.6 - - - -
01/03:30am 0.5 NE 3 4 1029.5 - 0.0 - - 0.4 - - - -
01/03:00am 1.6 NNE 3 4 1029.7 R 0.0 - - 0.5 - - - -
01/02:49am 1.6 NNE 3 4 1029.7 - 0.0 - - 3 - - - -
01/02:30am 1.9 NNE 3 4 1029.9 - 0.0 - - 10 - - - -
01/02:25am 2.1 NE 4 5 1029.9 - 0.0 - - 10 - - - -
01/02:00am 1.7 ENE 4 5 1029.8 - 0.0 - - 2 - - - -
01/01:31am 2.7 E 6 7 1029.8 - 0.0 - - 5 - - - -
01/01:30am 2.6 E 6 7 1029.8 - 0.0 - - 6 - - - -
01/01:00am 2.3 ENE 5 6 1030.0 - 0.0 - - 10 - - - -
01/12:30am 2.9 ENE 6 7 1030.0 - 0.0 - - 10 - - - -
01/12:00am 2.7 E 8 8 1029.9 F 0.0 - - 10 - - - -
 
Date/Time
CST
Temp

°C
Wind Pressure Rain
since 9am
mm
Weather Cloud Vis
km
Sea
Height
m
Swell
Dir
 
Speed
knots
Gust
knots
hPa Trend Height
m
Period
s
Dir
30/11:30pm 4.2 ENE 6 7 1030.2 - 0.0 - - 10 - - - -
30/11:00pm 4.3 SE 7 8 1030.1 - 0.0 - - 10 - - - -
30/10:30pm 4.7 SE 7 8 1030.1 - 0.0 - - 10 - - - -
30/10:00pm 5.0 SE 6 7 1029.9 - 0.0 - - 10 - - - -
30/09:30pm 4.4 SE 7 8 1029.9 - 0.0 - - 10 - - - -
30/09:00pm 3.6 SE 7 8 1030.1 F 0.0 - - 10 - - - -

Other Formats:

Comma delimited format used in spreadsheet applications
http://www.bom.gov.au/fwo/IDS60701/IDS60701.94653.axf

JavaScript Object Notation format (JSON) in row-major order
http://www.bom.gov.au/fwo/IDS60701/IDS60701.94653.json